When you browse on this site, cookies collect data to enhance your experience and personalize the content and advertising you see.
Visit our Privacy Policy to learn more. By continuing to use the site, you agree to this use of cookies and data.
  • In Belgien
  • Länderverzeichnis
  • Für 7 Tage
  • Wassertemperatur
  • Satellitenkarten
  • Wetterkarte
  • Widgets
  • user-avatar
    Anmelden

    Stündliche Wetter Zakrupe

    Heute, 27 Mai, Montag

    Zeit Temperatur Niederschläge Wind Luftdruck Luftfeuchtigkeit
    00:00 +10°C° 0 mm 3 m/S 740 mmHg 82%
    01:00 +9°C° 0 mm 3 m/S 740 mmHg 85%
    02:00 +9°C° 0 mm 3 m/S 740 mmHg 87%
    03:00 +8°C° 0 mm 4 m/S 740 mmHg 86%
    04:00 +10°C° 0 mm 4 m/S 740 mmHg 85%
    05:00 +10°C° 0 mm 4 m/S 740 mmHg 84%
    06:00 +10°C° 0 mm 5 m/S 741 mmHg 79%
    07:00 +10°C° 0 mm 5 m/S 741 mmHg 75%
    08:00 +11°C° 0 mm 6 m/S 741 mmHg 71%
    09:00 +13°C° 0.1 mm 5 m/S 741 mmHg 66%
    10:00 +14°C° 0.1 mm 5 m/S 742 mmHg 62%
    11:00 +15°C° 0.1 mm 5 m/S 742 mmHg 58%
    12:00 +15°C° 0 mm 5 m/S 742 mmHg 58%
    13:00 +16°C° 0 mm 5 m/S 742 mmHg 57%
    14:00 +16°C° 0 mm 5 m/S 742 mmHg 57%
    15:00 +18°C° 0 mm 4 m/S 743 mmHg 58%
    16:00 +18°C° 0 mm 4 m/S 743 mmHg 59%
    17:00 +18°C° 0 mm 4 m/S 743 mmHg 60%
    18:00 +17°C° 0 mm 4 m/S 743 mmHg 66%
    19:00 +15°C° 0 mm 4 m/S 743 mmHg 73%
    20:00 +14°C° 0 mm 4 m/S 743 mmHg 79%
    21:00 +14°C° 0.5 mm 4 m/S 743 mmHg 84%
    22:00 +14°C° 0.5 mm 5 m/S 743 mmHg 89%
    23:00 +14°C° 0.5 mm 5 m/S 743 mmHg 93%

    Morgen, 28 Mai, Dienstag

    Zeit Temperatur Niederschläge Wind Luftdruck Luftfeuchtigkeit
    00:00 +14°C° 0.1 mm 4 m/S 743 mmHg 94%
    01:00 +13°C° 0.1 mm 4 m/S 744 mmHg 95%
    02:00 +13°C° 0.1 mm 3 m/S 744 mmHg 96%
    03:00 +13°C° 0 mm 3 m/S 744 mmHg 96%
    04:00 +13°C° 0 mm 3 m/S 745 mmHg 96%
    05:00 +14°C° 0 mm 3 m/S 745 mmHg 95%
    06:00 +14°C° 0 mm 3 m/S 746 mmHg 91%
    07:00 +16°C° 0 mm 3 m/S 746 mmHg 86%
    08:00 +17°C° 0 mm 3 m/S 747 mmHg 82%
    09:00 +19°C° 0 mm 3 m/S 747 mmHg 76%
    10:00 +20°C° 0 mm 3 m/S 747 mmHg 71%
    11:00 +21°C° 0 mm 3 m/S 747 mmHg 65%
    12:00 +22°C° 0.2 mm 3 m/S 747 mmHg 65%
    13:00 +22°C° 0.2 mm 3 m/S 747 mmHg 65%
    14:00 +24°C° 0.2 mm 3 m/S 747 mmHg 65%
    15:00 +24°C° 0.1 mm 2 m/S 747 mmHg 67%
    16:00 +24°C° 0.1 mm 2 m/S 747 mmHg 70%
    17:00 +24°C° 0.1 mm 2 m/S 747 mmHg 72%
    18:00 +23°C° 0.4 mm 2 m/S 747 mmHg 78%
    19:00 +20°C° 0.4 mm 2 m/S 747 mmHg 84%
    20:00 +19°C° 0.4 mm 2 m/S 747 mmHg 89%
    21:00 +18°C° 0.1 mm 3 m/S 747 mmHg 91%
    22:00 +18°C° 0.1 mm 3 m/S 747 mmHg 92%
    23:00 +18°C° 0.1 mm 4 m/S 747 mmHg 93%

    übermorgen, 29 Mai, Mittwoch

    Zeit Temperatur Niederschläge Wind Luftdruck Luftfeuchtigkeit
    00:00 +17°C° 0 mm 4 m/S 747 mmHg 93%
    01:00 +17°C° 0 mm 4 m/S 747 mmHg 93%
    02:00 +17°C° 0 mm 4 m/S 747 mmHg 93%
    03:00 +17°C° 0 mm 4 m/S 747 mmHg 92%
    04:00 +18°C° 0 mm 4 m/S 747 mmHg 91%
    05:00 +17°C° 0 mm 5 m/S 747 mmHg 91%
    06:00 +20°C° 0 mm 5 m/S 747 mmHg 85%
    07:00 +21°C° 0 mm 5 m/S 747 mmHg 79%
    08:00 +23°C° 0 mm 5 m/S 747 mmHg 73%
    09:00 +24°C° 0 mm 6 m/S 747 mmHg 67%
    10:00 +26°C° 0 mm 6 m/S 747 mmHg 60%
    11:00 +27°C° 0 mm 7 m/S 747 mmHg 54%
    12:00 +28°C° 0 mm 6 m/S 747 mmHg 53%
    13:00 +28°C° 0 mm 6 m/S 747 mmHg 51%
    14:00 +29°C° 0 mm 6 m/S 747 mmHg 50%
    15:00 +28°C° 0 mm 5 m/S 747 mmHg 53%
    16:00 +28°C° 0 mm 5 m/S 747 mmHg 57%
    17:00 +27°C° 0 mm 4 m/S 747 mmHg 60%
    18:00 +26°C° 0 mm 4 m/S 747 mmHg 63%
    19:00 +24°C° 0 mm 3 m/S 747 mmHg 67%
    20:00 +22°C° 0 mm 3 m/S 747 mmHg 71%
    21:00 +21°C° 0 mm 3 m/S 748 mmHg 74%
    22:00 +20°C° 0 mm 3 m/S 748 mmHg 78%
    23:00 +19°C° 0 mm 3 m/S 748 mmHg 82%

    30 Mai, Donnerstag

    Zeit Temperatur Niederschläge Wind Luftdruck Luftfeuchtigkeit
    00:00 +18°C° 0 mm 3 m/S 748 mmHg 85%
    01:00 +18°C° 0 mm 3 m/S 749 mmHg 89%
    02:00 +17°C° 0 mm 2 m/S 749 mmHg 92%
    03:00 +18°C° 0.2 mm 3 m/S 749 mmHg 92%
    04:00 +18°C° 0.2 mm 3 m/S 749 mmHg 92%
    05:00 +19°C° 0.2 mm 4 m/S 749 mmHg 92%
    06:00 +19°C° 0.7 mm 4 m/S 750 mmHg 89%
    07:00 +20°C° 0.7 mm 4 m/S 750 mmHg 87%
    08:00 +21°C° 0.7 mm 5 m/S 750 mmHg 84%
    09:00 +22°C° 0.8 mm 4 m/S 750 mmHg 84%
    10:00 +22°C° 0.8 mm 4 m/S 750 mmHg 83%
    11:00 +22°C° 0.8 mm 4 m/S 750 mmHg 83%
    12:00 +22°C° 1 mm 3 m/S 750 mmHg 83%
    13:00 +22°C° 1 mm 3 m/S 750 mmHg 84%
    14:00 +22°C° 1 mm 3 m/S 750 mmHg 84%
    15:00 +21°C° 1.3 mm 2 m/S 750 mmHg 87%
    16:00 +22°C° 1.3 mm 1 m/S 750 mmHg 89%
    17:00 +21°C° 1.3 mm 1 m/S 750 mmHg 92%
    18:00 +21°C° 0.1 mm 1 m/S 750 mmHg 93%
    19:00 +18°C° 0.1 mm 0 m/S 750 mmHg 95%
    20:00 +17°C° 0.1 mm 0 m/S 750 mmHg 96%
    21:00 +17°C° 0 mm 0 m/S 750 mmHg 96%
    22:00 +18°C° 0 mm 1 m/S 751 mmHg 97%
    23:00 +18°C° 0 mm 1 m/S 751 mmHg 97%

    31 Mai, Freitag

    Zeit Temperatur Niederschläge Wind Luftdruck Luftfeuchtigkeit
    00:00 +16°C° 0 mm 1 m/S 751 mmHg 97%
    01:00 +15°C° 0 mm 1 m/S 751 mmHg 97%
    02:00 +15°C° 0 mm 1 m/S 751 mmHg 97%
    03:00 +15°C° 0 mm 1 m/S 751 mmHg 96%
    04:00 +15°C° 0 mm 1 m/S 751 mmHg 95%
    05:00 +15°C° 0 mm 1 m/S 751 mmHg 94%
    06:00 +18°C° 0 mm 1 m/S 751 mmHg 88%
    07:00 +20°C° 0 mm 1 m/S 751 mmHg 83%
    08:00 +20°C° 0 mm 0 m/S 751 mmHg 77%
    09:00 +21°C° 0 mm 0 m/S 751 mmHg 72%
    10:00 +23°C° 0 mm 0 m/S 751 mmHg 67%
    11:00 +24°C° 0 mm 0 m/S 751 mmHg 62%
    12:00 +24°C° 0 mm 0 m/S 751 mmHg 60%
    13:00 +27°C° 0 mm 1 m/S 750 mmHg 57%
    14:00 +27°C° 0 mm 1 m/S 750 mmHg 55%
    15:00 +27°C° 0 mm 1 m/S 750 mmHg 58%
    16:00 +26°C° 0 mm 1 m/S 750 mmHg 60%
    17:00 +26°C° 0 mm 1 m/S 750 mmHg 62%
    18:00 +24°C° 0 mm 1 m/S 750 mmHg 68%
    19:00 +23°C° 0 mm 1 m/S 750 mmHg 74%
    20:00 +19°C° 0 mm 0 m/S 750 mmHg 80%
    21:00 +21°C° 0.7 mm 1 m/S 750 mmHg 84%
    22:00 +20°C° 0.7 mm 1 m/S 749 mmHg 87%
    23:00 +19°C° 0.7 mm 1 m/S 749 mmHg 91%

    1 Juni, Samstag

    Zeit Temperatur Niederschläge Wind Luftdruck Luftfeuchtigkeit
    00:00 +19°C° 0.4 mm 1 m/S 749 mmHg 92%
    01:00 +19°C° 0.4 mm 1 m/S 749 mmHg 94%
    02:00 +18°C° 0.4 mm 1 m/S 749 mmHg 95%
    03:00 +18°C° 0.2 mm 2 m/S 749 mmHg 95%
    04:00 +18°C° 0.2 mm 2 m/S 749 mmHg 95%
    05:00 +19°C° 0.2 mm 2 m/S 749 mmHg 95%
    06:00 +20°C° 0.5 mm 2 m/S 749 mmHg 93%
    07:00 +21°C° 0.5 mm 2 m/S 749 mmHg 90%
    08:00 +23°C° 0.5 mm 2 m/S 749 mmHg 87%
    09:00 +24°C° 0.2 mm 2 m/S 749 mmHg 78%
    10:00 +26°C° 0.2 mm 3 m/S 749 mmHg 69%
    11:00 +27°C° 0.2 mm 4 m/S 748 mmHg 60%
    12:00 +27°C° 0.7 mm 4 m/S 748 mmHg 64%
    13:00 +27°C° 0.7 mm 3 m/S 748 mmHg 68%
    14:00 +27°C° 0.7 mm 3 m/S 748 mmHg 71%
    15:00 +26°C° 1.3 mm 3 m/S 747 mmHg 76%
    16:00 +25°C° 1.3 mm 3 m/S 747 mmHg 80%
    17:00 +24°C° 1.3 mm 2 m/S 747 mmHg 85%
    18:00 +23°C° 0.9 mm 2 m/S 747 mmHg 88%
    19:00 +20°C° 0.9 mm 2 m/S 748 mmHg 91%
    20:00 +20°C° 0.9 mm 1 m/S 748 mmHg 95%
    21:00 +18°C° 0.4 mm 2 m/S 748 mmHg 95%
    22:00 +17°C° 0.4 mm 3 m/S 749 mmHg 95%
    23:00 +15°C° 0.4 mm 4 m/S 749 mmHg 95%
    Mehr zeigen